Orbital Elements at Epoch 2459200.5 (2020-Dec-17.0) TDB
Reference: JPL 15 (heliocentric ecliptic J2000)
Element | Value | Uncertainty (1-sigma) | Units |
e | .137804567011376 | 6.2199e-08 | |
a | 2.14438973668248 | 1.1753e-08 | au |
q | 1.848883037515312 | 1.2878e-07 | au |
i | 4.006908437350292 | 7.7083e-06 | deg |
node | 318.7281763372958 | 6.5546e-05 | deg |
peri | 66.88484323984046 | 7.4018e-05 | deg |
M | 170.1838550449363 | 3.4526e-05 | deg |
tp | 2458658.287078283747 (2019-Jun-23.78707828) | 0.0001078 | TDB |
period | 1146.975145006031 3.14 | 9.4297e-06 2.582e-08 | d yr |
n | .3138690507527146 | 2.5804e-09 | deg/d |
Q | 2.439896435849647 | 1.3373e-08 | au |
|
| | Orbit Determination Parameters
Additional Information
|